Time,TemperatureF,DewpointF,PressureIn,WindDirection,WindDirectionDegrees,WindSpeedMPH,WindSpeedGustMPH,Humidity,HourlyPrecipIn,Conditions,Clouds,dailyrainin,SoftwareType,DateUTC
2013-01-13 00:01:00,39.0,37.7,29.75,SSE,157,0.0,5.0,95,0.00,,,0.00,Weather View 32 v70,2013-01-13 05:01:00,
2013-01-13 00:02:00,39.0,37.7,29.75,SSE,157,0.0,5.0,95,0.00,,,0.00,Weather View 32 v70,2013-01-13 05:02:00,
2013-01-13 00:03:00,38.0,37.0,29.75,SSE,157,0.0,5.0,96,0.00,,,0.00,Weather View 32 v70,2013-01-13 05:03:00,
2013-01-13 00:08:00,38.0,37.0,29.76,SSE,157,0.0,5.0,96,0.00,,,0.00,Weather View 32 v70,2013-01-13 05:08:00,
2013-01-13 00:13:00,38.0,37.0,29.76,SSE,157,0.0,5.0,96,0.00,,,0.00,Weather View 32 v70,2013-01-13 05:13:00,
2013-01-13 00:18:00,38.0,37.0,29.76,SSE,157,0.0,5.0,96,0.00,,,0.00,Weather View 32 v70,2013-01-13 05:18:00,
2013-01-13 00:23:00,38.0,37.0,29.76,SE,135,2.0,5.0,96,0.00,,,0.00,Weather View 32 v70,2013-01-13 05:23:00,
2013-01-13 00:28:00,39.0,38.0,29.76,ESE,112,1.0,5.0,96,0.00,,,0.00,Weather View 32 v70,2013-01-13 05:28:00,
2013-01-13 00:33:00,39.0,38.0,29.77,ESE,112,0.0,5.0,96,0.00,,,0.00,Weather View 32 v70,2013-01-13 05:33:00,
2013-01-13 00:38:00,38.0,37.2,29.77,ESE,112,0.0,5.0,97,0.00,,,0.00,Weather View 32 v70,2013-01-13 05:38:00,
2013-01-13 00:43:00,38.0,37.2,29.79,ESE,112,2.0,5.0,97,0.00,,,0.00,Weather View 32 v70,2013-01-13 05:43:00,
2013-01-13 00:48:00,39.0,38.2,29.78,SSE,157,3.0,5.0,97,0.00,,,0.00,Weather View 32 v70,2013-01-13 05:48:00,
2013-01-13 00:53:00,39.0,38.2,29.77,SSE,157,1.0,6.0,97,0.00,,,0.00,Weather View 32 v70,2013-01-13 05:53:00,
2013-01-13 00:58:00,38.0,37.5,29.77,SSE,157,1.0,6.0,98,0.00,,,0.00,Weather View 32 v70,2013-01-13 05:58:00,
2013-01-13 01:03:00,38.0,37.5,29.76,SSE,157,0.0,6.0,98,0.00,,,0.00,Weather View 32 v70,2013-01-13 06:03:00,
2013-01-13 01:08:00,37.0,36.5,29.76,SSE,157,0.0,6.0,98,0.00,,,0.00,Weather View 32 v70,2013-01-13 06:08:00,
2013-01-13 01:13:00,37.0,36.5,29.75,SSE,157,0.0,6.0,98,0.00,,,0.00,Weather View 32 v70,2013-01-13 06:13:00,
2013-01-13 01:18:00,37.0,36.5,29.76,SSE,157,0.0,6.0,98,0.00,,,0.00,Weather View 32 v70,2013-01-13 06:18:00,
2013-01-13 01:23:00,38.0,37.7,29.76,SSE,157,1.0,6.0,99,0.00,,,0.00,Weather View 32 v70,2013-01-13 06:23:00,
2013-01-13 01:28:00,39.0,38.5,29.76,SSE,157,0.0,6.0,98,0.00,,,0.00,Weather View 32 v70,2013-01-13 06:28:00,
2013-01-13 01:33:00,39.0,38.2,29.77,SSE,157,1.0,6.0,97,0.00,,,0.00,Weather View 32 v70,2013-01-13 06:33:00,
2013-01-13 01:38:00,39.0,38.2,29.77,SSE,157,0.0,6.0,97,0.00,,,0.00,Weather View 32 v70,2013-01-13 06:38:00,
2013-01-13 01:43:00,38.0,37.7,29.77,SSW,202,2.0,6.0,99,0.00,,,0.00,Weather View 32 v70,2013-01-13 06:43:00,
2013-01-13 01:48:00,38.0,37.5,29.74,SW,225,0.0,6.0,98,0.00,,,0.00,Weather View 32 v70,2013-01-13 06:48:00,
2013-01-13 01:53:00,37.0,36.5,29.76,SW,225,0.0,3.0,98,0.00,,,0.00,Weather View 32 v70,2013-01-13 06:53:00,
2013-01-13 01:58:00,37.0,36.5,29.76,SW,225,0.0,3.0,98,0.00,,,0.00,Weather View 32 v70,2013-01-13 06:58:00,
2013-01-13 02:03:00,38.0,37.5,29.76,SW,225,0.0,3.0,98,0.00,,,0.00,Weather View 32 v70,2013-01-13 07:03:00,
2013-01-13 02:08:00,38.0,37.5,29.76,South,180,2.0,4.0,98,0.00,,,0.00,Weather View 32 v70,2013-01-13 07:08:00,
2013-01-13 02:13:00,38.0,37.7,29.78,South,180,1.0,4.0,99,0.00,,,0.00,Weather View 32 v70,2013-01-13 07:13:00,
2013-01-13 02:18:00,38.0,37.5,29.78,South,180,1.0,4.0,98,0.00,,,0.00,Weather View 32 v70,2013-01-13 07:18:00,
2013-01-13 02:23:00,39.0,38.5,29.78,South,180,0.0,4.0,98,0.00,,,0.00,Weather View 32 v70,2013-01-13 07:23:00,
2013-01-13 02:28:00,39.0,38.5,29.78,South,180,0.0,4.0,98,0.00,,,0.00,Weather View 32 v70,2013-01-13 07:28:00,
2013-01-13 02:33:00,39.0,38.5,29.78,South,180,0.0,4.0,98,0.00,,,0.00,Weather View 32 v70,2013-01-13 07:33:00,
2013-01-13 02:38:00,39.0,38.2,29.78,South,180,2.0,4.0,97,0.00,,,0.00,Weather View 32 v70,2013-01-13 07:38:00,
2013-01-13 02:43:00,39.0,38.7,29.78,South,180,0.0,4.0,99,0.00,,,0.00,Weather View 32 v70,2013-01-13 07:43:00,
2013-01-13 02:48:00,39.0,38.7,29.77,South,180,0.0,4.0,99,0.00,,,0.00,Weather View 32 v70,2013-01-13 07:48:00,
2013-01-13 02:53:00,39.0,38.5,29.75,South,180,0.0,4.0,98,0.00,,,0.00,Weather View 32 v70,2013-01-13 07:53:00,
2013-01-13 02:58:00,39.0,38.7,29.75,South,180,0.0,4.0,99,0.00,,,0.00,Weather View 32 v70,2013-01-13 07:58:00,
2013-01-13 03:03:00,39.0,38.5,29.77,South,180,0.0,4.0,98,0.00,,,0.00,Weather View 32 v70,2013-01-13 08:03:00,
2013-01-13 03:08:00,39.0,38.7,29.77,South,180,0.0,3.0,99,0.00,,,0.00,Weather View 32 v70,2013-01-13 08:08:00,
2013-01-13 03:13:00,38.0,37.7,29.77,South,180,0.0,3.0,99,0.00,,,0.00,Weather View 32 v70,2013-01-13 08:13:00,
2013-01-13 03:18:00,38.0,37.7,29.77,South,180,0.0,3.0,99,0.00,,,0.00,Weather View 32 v70,2013-01-13 08:18:00,
2013-01-13 03:23:00,38.0,38.0,29.76,South,180,0.0,3.0,100,0.00,,,0.00,Weather View 32 v70,2013-01-13 08:23:00,
2013-01-13 03:28:00,38.0,38.0,29.76,South,180,0.0,3.0,100,0.00,,,0.00,Weather View 32 v70,2013-01-13 08:28:00,
2013-01-13 03:33:00,37.0,37.0,29.77,South,180,0.0,3.0,100,0.00,,,0.00,Weather View 32 v70,2013-01-13 08:33:00,
2013-01-13 03:38:00,37.0,37.0,29.76,South,180,0.0,3.0,100,0.00,,,0.00,Weather View 32 v70,2013-01-13 08:38:00,
2013-01-13 03:43:00,37.0,36.7,29.76,South,180,0.0,0.0,99,0.00,,,0.00,Weather View 32 v70,2013-01-13 08:43:00,
2013-01-13 03:48:00,37.0,36.7,29.76,South,180,0.0,0.0,99,0.00,,,0.00,Weather View 32 v70,2013-01-13 08:48:00,
2013-01-13 03:53:00,37.0,37.0,29.76,South,180,0.0,0.0,100,0.00,,,0.00,Weather View 32 v70,2013-01-13 08:53:00,
2013-01-13 03:58:00,37.0,37.0,29.76,South,180,0.0,0.0,100,0.00,,,0.00,Weather View 32 v70,2013-01-13 08:58:00,
2013-01-13 04:03:00,37.0,37.0,29.76,South,180,0.0,0.0,100,0.00,,,0.00,Weather View 32 v70,2013-01-13 09:03:00,
2013-01-13 04:08:00,37.0,37.0,29.76,West,270,0.0,1.0,100,0.00,,,0.00,Weather View 32 v70,2013-01-13 09:08:00,
2013-01-13 04:13:00,37.0,37.0,29.75,NW,315,0.0,1.0,100,0.00,,,0.00,Weather View 32 v70,2013-01-13 09:13:00,
2013-01-13 04:18:00,37.0,37.0,29.75,NW,315,0.0,1.0,100,0.00,,,0.00,Weather View 32 v70,2013-01-13 09:18:00,
2013-01-13 04:23:00,37.0,37.0,29.75,NW,315,0.0,1.0,100,0.00,,,0.00,Weather View 32 v70,2013-01-13 09:23:00,
2013-01-13 04:28:00,37.0,37.0,29.75,NW,315,2.0,2.0,100,0.00,,,0.00,Weather View 32 v70,2013-01-13 09:28:00,
2013-01-13 04:33:00,36.0,36.0,29.75,NW,315,0.0,3.0,100,0.00,,,0.00,Weather View 32 v70,2013-01-13 09:33:00,
2013-01-13 04:38:00,37.0,37.0,29.76,NNE,22,5.0,5.0,100,0.00,,,0.00,Weather View 32 v70,2013-01-13 09:38:00,
2013-01-13 04:43:00,37.0,37.0,29.76,NNE,22,1.0,6.0,100,0.00,,,0.00,Weather View 32 v70,2013-01-13 09:43:00,
2013-01-13 04:48:00,37.0,37.0,29.76,NNE,22,0.0,6.0,100,0.00,,,0.00,Weather View 32 v70,2013-01-13 09:48:00,
2013-01-13 04:53:00,37.0,37.0,29.76,NNE,22,0.0,6.0,100,0.00,,,0.00,Weather View 32 v70,2013-01-13 09:53:00,
2013-01-13 04:58:00,37.0,37.0,29.76,NNE,22,0.0,6.0,100,0.00,,,0.00,Weather View 32 v70,2013-01-13 09:58:00,
2013-01-13 05:03:00,37.0,37.0,29.76,SSW,202,1.0,6.0,100,0.00,,,0.00,Weather View 32 v70,2013-01-13 10:03:00,
2013-01-13 05:08:00,37.0,37.0,29.76,SSW,202,0.0,6.0,100,0.00,,,0.00,Weather View 32 v70,2013-01-13 10:08:00,
2013-01-13 05:13:00,37.0,37.0,29.76,SSW,202,0.0,6.0,100,0.00,,,0.00,Weather View 32 v70,2013-01-13 10:13:00,
2013-01-13 05:18:00,36.0,36.0,29.76,SSW,202,0.0,6.0,100,0.00,,,0.00,Weather View 32 v70,2013-01-13 10:18:00,
2013-01-13 05:23:00,36.0,36.0,29.76,SSW,202,0.0,6.0,100,0.00,,,0.00,Weather View 32 v70,2013-01-13 10:23:00,
2013-01-13 05:28:00,36.0,36.0,29.76,SSW,202,0.0,6.0,100,0.00,,,0.00,Weather View 32 v70,2013-01-13 10:28:00,
2013-01-13 05:33:00,36.0,36.0,29.76,SSW,202,0.0,6.0,100,0.00,,,0.00,Weather View 32 v70,2013-01-13 10:33:00,
2013-01-13 05:38:00,37.0,37.0,29.76,SSW,202,0.0,6.0,100,0.00,,,0.00,Weather View 32 v70,2013-01-13 10:38:00,
2013-01-13 05:43:00,36.0,36.0,29.76,SSW,202,0.0,4.0,100,0.00,,,0.00,Weather View 32 v70,2013-01-13 10:43:00,
2013-01-13 05:48:00,37.0,37.0,29.76,ENE,67,2.0,4.0,100,0.00,,,0.00,Weather View 32 v70,2013-01-13 10:48:00,
2013-01-13 05:53:00,37.0,37.0,29.76,ENE,67,0.0,4.0,100,0.00,,,0.00,Weather View 32 v70,2013-01-13 10:53:00,
2013-01-13 05:58:00,37.0,37.0,29.76,ENE,67,0.0,4.0,100,0.00,,,0.00,Weather View 32 v70,2013-01-13 10:58:00,
2013-01-13 06:03:00,37.0,37.0,29.76,ENE,67,0.0,4.0,100,0.00,,,0.00,Weather View 32 v70,2013-01-13 11:03:00,
2013-01-13 06:08:00,37.0,37.0,29.76,ENE,67,0.0,4.0,100,0.00,,,0.00,Weather View 32 v70,2013-01-13 11:08:00,
2013-01-13 06:13:00,36.0,36.0,29.76,ENE,67,0.0,4.0,100,0.00,,,0.00,Weather View 32 v70,2013-01-13 11:13:00,
2013-01-13 06:18:00,36.0,36.0,29.77,ENE,67,0.0,4.0,100,0.00,,,0.00,Weather View 32 v70,2013-01-13 11:18:00,
2013-01-13 06:23:00,36.0,36.0,29.76,SE,135,2.0,4.0,100,0.00,,,0.00,Weather View 32 v70,2013-01-13 11:23:00,
2013-01-13 06:28:00,36.0,36.0,29.77,SE,135,0.0,4.0,100,0.00,,,0.00,Weather View 32 v70,2013-01-13 11:28:00,
2013-01-13 06:33:00,36.0,36.0,29.77,WSW,247,0.0,4.0,100,0.00,,,0.00,Weather View 32 v70,2013-01-13 11:33:00,
2013-01-13 06:38:00,36.0,36.0,29.77,SSE,157,3.0,5.0,100,0.00,,,0.00,Weather View 32 v70,2013-01-13 11:38:00,
2013-01-13 06:43:00,36.0,36.0,29.76,South,180,0.0,5.0,100,0.01,,,0.01,Weather View 32 v70,2013-01-13 11:43:00,
2013-01-13 06:48:00,36.0,36.0,29.76,East,90,3.0,5.0,100,0.01,,,0.01,Weather View 32 v70,2013-01-13 11:48:00,
2013-01-13 06:53:00,36.0,36.0,29.76,East,90,0.0,5.0,100,0.01,,,0.01,Weather View 32 v70,2013-01-13 11:53:00,
2013-01-13 06:58:00,36.0,36.0,29.76,NE,45,0.0,5.0,100,0.01,,,0.01,Weather View 32 v70,2013-01-13 11:58:00,
2013-01-13 07:03:00,36.0,36.0,29.75,NNE,22,0.0,5.0,100,0.01,,,0.01,Weather View 32 v70,2013-01-13 12:03:00,
2013-01-13 07:08:00,36.0,36.0,29.77,North,360,0.0,5.0,100,0.01,,,0.01,Weather View 32 v70,2013-01-13 12:08:00,
2013-01-13 07:13:00,37.0,37.0,29.76,North,360,0.0,5.0,100,0.01,,,0.01,Weather View 32 v70,2013-01-13 12:13:00,
2013-01-13 07:18:00,37.0,37.0,29.75,North,360,0.0,5.0,100,0.01,,,0.01,Weather View 32 v70,2013-01-13 12:18:00,
2013-01-13 07:23:00,37.0,37.0,29.76,North,360,0.0,5.0,100,0.01,,,0.01,Weather View 32 v70,2013-01-13 12:23:00,
2013-01-13 07:28:00,37.0,37.0,29.76,North,360,0.0,5.0,100,0.01,,,0.01,Weather View 32 v70,2013-01-13 12:28:00,
2013-01-13 07:33:00,37.0,37.0,29.75,ESE,112,3.0,5.0,100,0.01,,,0.01,Weather View 32 v70,2013-01-13 12:33:00,
2013-01-13 07:38:00,37.0,37.0,29.75,ESE,112,0.0,5.0,100,0.01,,,0.01,Weather View 32 v70,2013-01-13 12:38:00,
2013-01-13 07:43:00,37.0,37.0,29.76,South,180,0.0,4.0,100,0.00,,,0.01,Weather View 32 v70,2013-01-13 12:43:00,
2013-01-13 07:48:00,37.0,37.0,29.76,South,180,1.0,4.0,100,0.00,,,0.01,Weather View 32 v70,2013-01-13 12:48:00,
2013-01-13 07:53:00,37.0,37.0,29.75,South,180,0.0,4.0,100,0.00,,,0.01,Weather View 32 v70,2013-01-13 12:53:00,
2013-01-13 07:58:00,37.0,37.0,29.77,South,180,0.0,4.0,100,0.00,,,0.01,Weather View 32 v70,2013-01-13 12:58:00,
2013-01-13 08:03:00,37.0,37.0,29.77,WSW,247,0.0,4.0,100,0.00,,,0.01,Weather View 32 v70,2013-01-13 13:03:00,
2013-01-13 08:08:00,36.0,36.0,29.77,WSW,247,0.0,4.0,100,0.00,,,0.01,Weather View 32 v70,2013-01-13 13:08:00,
2013-01-13 08:13:00,37.0,37.0,29.77,WSW,247,0.0,4.0,100,0.00,,,0.01,Weather View 32 v70,2013-01-13 13:13:00,
2013-01-13 08:18:00,37.0,37.0,29.78,WSW,247,0.0,4.0,100,0.00,,,0.01,Weather View 32 v70,2013-01-13 13:18:00,
2013-01-13 08:23:00,38.0,38.0,29.78,WSW,247,1.0,4.0,100,0.00,,,0.01,Weather View 32 v70,2013-01-13 13:23:00,
2013-01-13 08:28:00,38.0,38.0,29.79,SSW,202,4.0,4.0,100,0.00,,,0.01,Weather View 32 v70,2013-01-13 13:28:00,
2013-01-13 08:33:00,39.0,38.7,29.80,West,270,1.0,7.0,99,0.00,,,0.01,Weather View 32 v70,2013-01-13 13:33:00,
2013-01-13 08:38:00,39.0,38.7,29.80,WSW,247,3.0,7.0,99,0.00,,,0.01,Weather View 32 v70,2013-01-13 13:38:00,
2013-01-13 08:43:00,40.0,39.7,29.80,WSW,247,7.0,9.0,99,0.00,,,0.01,Weather View 32 v70,2013-01-13 13:43:00,
2013-01-13 08:48:00,40.0,39.7,29.80,West,270,3.0,9.0,99,0.00,,,0.01,Weather View 32 v70,2013-01-13 13:48:00,
2013-01-13 08:53:00,40.0,40.0,29.80,SSW,202,1.0,9.0,100,0.00,,,0.01,Weather View 32 v70,2013-01-13 13:53:00,
2013-01-13 08:58:00,40.0,40.0,29.81,WSW,247,1.0,9.0,100,0.00,,,0.01,Weather View 32 v70,2013-01-13 13:58:00,
2013-01-13 09:03:00,40.0,40.0,29.80,WSW,247,5.0,9.0,100,0.00,,,0.01,Weather View 32 v70,2013-01-13 14:03:00,
2013-01-13 09:08:00,41.0,41.0,29.80,WSW,247,0.0,9.0,100,0.00,,,0.01,Weather View 32 v70,2013-01-13 14:08:00,
2013-01-13 09:13:00,41.0,41.0,29.80,SSW,202,5.0,9.0,100,0.00,,,0.01,Weather View 32 v70,2013-01-13 14:13:00,
2013-01-13 09:18:00,41.0,41.0,29.80,West,270,0.0,9.0,100,0.00,,,0.01,Weather View 32 v70,2013-01-13 14:18:00,
2013-01-13 09:23:00,41.0,41.0,29.78,West,270,0.0,9.0,100,0.00,,,0.01,Weather View 32 v70,2013-01-13 14:23:00,
2013-01-13 09:28:00,42.0,42.0,29.78,West,270,1.0,9.0,100,0.00,,,0.01,Weather View 32 v70,2013-01-13 14:28:00,
2013-01-13 09:33:00,42.0,42.0,29.80,West,270,0.0,9.0,100,0.00,,,0.01,Weather View 32 v70,2013-01-13 14:33:00,
2013-01-13 09:38:00,42.0,42.0,29.80,West,270,1.0,9.0,100,0.00,,,0.01,Weather View 32 v70,2013-01-13 14:38:00,
2013-01-13 09:43:00,42.0,42.0,29.81,SSE,157,4.0,9.0,100,0.00,,,0.01,Weather View 32 v70,2013-01-13 14:43:00,
2013-01-13 09:48:00,41.0,41.0,29.80,West,270,0.0,9.0,100,0.00,,,0.01,Weather View 32 v70,2013-01-13 14:48:00,
2013-01-13 09:53:00,41.0,41.0,29.80,SSW,202,6.0,9.0,100,0.00,,,0.01,Weather View 32 v70,2013-01-13 14:53:00,
2013-01-13 09:58:00,41.0,40.7,29.80,WSW,247,2.0,7.0,99,0.00,,,0.01,Weather View 32 v70,2013-01-13 14:58:00,
2013-01-13 10:03:00,41.0,41.0,29.80,West,270,1.0,9.0,100,0.00,,,0.01,Weather View 32 v70,2013-01-13 15:03:00,
2013-01-13 10:08:00,41.0,41.0,29.80,WSW,247,1.0,9.0,100,0.00,,,0.01,Weather View 32 v70,2013-01-13 15:08:00,
2013-01-13 10:13:00,41.0,41.0,29.80,WSW,247,1.0,9.0,100,0.00,,,0.01,Weather View 32 v70,2013-01-13 15:13:00,
2013-01-13 10:18:00,41.0,41.0,29.78,SSW,202,5.0,9.0,100,0.00,,,0.01,Weather View 32 v70,2013-01-13 15:18:00,
2013-01-13 10:23:00,41.0,41.0,29.80,SE,135,1.0,10.0,100,0.00,,,0.01,Weather View 32 v70,2013-01-13 15:23:00,
2013-01-13 10:28:00,41.0,41.0,29.80,WSW,247,5.0,10.0,100,0.00,,,0.01,Weather View 32 v70,2013-01-13 15:28:00,
2013-01-13 10:33:00,41.0,41.0,29.80,WSW,247,4.0,10.0,100,0.00,,,0.01,Weather View 32 v70,2013-01-13 15:33:00,
2013-01-13 10:38:00,41.0,41.0,29.80,West,270,5.0,10.0,100,0.00,,,0.01,Weather View 32 v70,2013-01-13 15:38:00,
2013-01-13 10:43:00,41.0,41.0,29.79,WSW,247,4.0,10.0,100,0.00,,,0.01,Weather View 32 v70,2013-01-13 15:43:00,
2013-01-13 10:48:00,41.0,41.0,29.78,SE,135,4.0,10.0,100,0.00,,,0.01,Weather View 32 v70,2013-01-13 15:48:00,
2013-01-13 10:53:00,41.0,41.0,29.80,WSW,247,4.0,10.0,100,0.00,,,0.01,Weather View 32 v70,2013-01-13 15:53:00,
2013-01-13 10:58:00,41.0,41.0,29.79,SSW,202,3.0,10.0,100,0.00,,,0.01,Weather View 32 v70,2013-01-13 15:58:00,
2013-01-13 11:03:00,42.0,42.0,29.79,SW,225,4.0,10.0,100,0.00,,,0.01,Weather View 32 v70,2013-01-13 16:03:00,
2013-01-13 11:08:00,42.0,42.0,29.79,SW,225,3.0,10.0,100,0.00,,,0.01,Weather View 32 v70,2013-01-13 16:08:00,
2013-01-13 11:13:00,42.0,42.0,29.79,West,270,7.0,10.0,100,0.00,,,0.01,Weather View 32 v70,2013-01-13 16:13:00,
2013-01-13 11:18:00,42.0,42.0,29.79,WSW,247,5.0,10.0,100,0.00,,,0.01,Weather View 32 v70,2013-01-13 16:18:00,
2013-01-13 11:23:00,42.0,42.0,29.80,WSW,247,4.0,10.0,100,0.00,,,0.01,Weather View 32 v70,2013-01-13 16:23:00,
2013-01-13 11:28:00,43.0,43.0,29.79,WNW,292,6.0,10.0,100,0.00,,,0.01,Weather View 32 v70,2013-01-13 16:28:00,
2013-01-13 11:33:00,43.0,43.0,29.79,WSW,247,0.0,10.0,100,0.00,,,0.01,Weather View 32 v70,2013-01-13 16:33:00,
2013-01-13 11:38:00,43.0,43.0,29.80,SW,225,7.0,10.0,100,0.00,,,0.01,Weather View 32 v70,2013-01-13 16:38:00,
2013-01-13 11:43:00,43.0,43.0,29.80,SSW,202,0.0,10.0,100,0.00,,,0.01,Weather View 32 v70,2013-01-13 16:43:00,
2013-01-13 11:48:00,43.0,43.0,29.80,West,270,2.0,10.0,100,0.00,,,0.01,Weather View 32 v70,2013-01-13 16:48:00,
2013-01-13 11:53:00,43.0,43.0,29.79,WNW,292,1.0,9.0,100,0.00,,,0.01,Weather View 32 v70,2013-01-13 16:53:00,
2013-01-13 11:58:00,43.0,43.0,29.79,West,270,6.0,9.0,100,0.00,,,0.01,Weather View 32 v70,2013-01-13 16:58:00,
2013-01-13 12:03:00,43.0,43.0,29.78,NNW,337,2.0,11.0,100,0.00,,,0.01,Weather View 32 v70,2013-01-13 17:03:00,
2013-01-13 12:08:00,43.0,43.0,29.79,South,180,1.0,11.0,100,0.00,,,0.01,Weather View 32 v70,2013-01-13 17:08:00,
2013-01-13 12:13:00,43.0,43.0,29.78,SW,225,4.0,11.0,100,0.00,,,0.01,Weather View 32 v70,2013-01-13 17:13:00,
2013-01-13 12:18:00,43.0,43.0,29.78,West,270,2.0,12.0,100,0.00,,,0.01,Weather View 32 v70,2013-01-13 17:18:00,
2013-01-13 12:23:00,43.0,43.0,29.78,SSE,157,0.0,12.0,100,0.00,,,0.01,Weather View 32 v70,2013-01-13 17:23:00,
2013-01-13 12:28:00,44.0,44.0,29.78,WSW,247,1.0,12.0,100,0.00,,,0.01,Weather View 32 v70,2013-01-13 17:28:00,
2013-01-13 12:33:00,43.0,43.0,29.77,WSW,247,4.0,12.0,100,0.00,,,0.01,Weather View 32 v70,2013-01-13 17:33:00,
2013-01-13 12:38:00,43.0,43.0,29.77,West,270,4.0,12.0,100,0.00,,,0.01,Weather View 32 v70,2013-01-13 17:38:00,
2013-01-13 12:43:00,43.0,43.0,29.77,WNW,292,0.0,12.0,100,0.00,,,0.01,Weather View 32 v70,2013-01-13 17:43:00,
2013-01-13 12:48:00,43.0,43.0,29.76,WSW,247,1.0,12.0,100,0.00,,,0.01,Weather View 32 v70,2013-01-13 17:48:00,
2013-01-13 12:53:00,43.0,43.0,29.76,WNW,292,2.0,12.0,100,0.00,,,0.01,Weather View 32 v70,2013-01-13 17:53:00,
2013-01-13 12:58:00,42.0,42.0,29.76,SSW,202,6.0,12.0,100,0.00,,,0.01,Weather View 32 v70,2013-01-13 17:58:00,
2013-01-13 13:03:00,42.0,42.0,29.76,SSW,202,2.0,12.0,100,0.00,,,0.01,Weather View 32 v70,2013-01-13 18:03:00,
2013-01-13 13:08:00,42.0,42.0,29.76,SSW,202,7.0,12.0,100,0.00,,,0.01,Weather View 32 v70,2013-01-13 18:08:00,
2013-01-13 13:13:00,42.0,42.0,29.75,SSW,202,9.0,12.0,100,0.00,,,0.01,Weather View 32 v70,2013-01-13 18:13:00,
2013-01-13 13:18:00,42.0,42.0,29.75,SSW,202,9.0,9.0,100,0.00,,,0.01,Weather View 32 v70,2013-01-13 18:18:00,
2013-01-13 13:23:00,42.0,42.0,29.75,SSW,202,6.0,9.0,100,0.00,,,0.01,Weather View 32 v70,2013-01-13 18:23:00,
2013-01-13 13:28:00,42.0,42.0,29.75,SSW,202,6.0,10.0,100,0.00,,,0.01,Weather View 32 v70,2013-01-13 18:28:00,
2013-01-13 13:33:00,42.0,42.0,29.75,South,180,3.0,10.0,100,0.00,,,0.01,Weather View 32 v70,2013-01-13 18:33:00,
2013-01-13 13:38:00,42.0,42.0,29.75,SSW,202,9.0,10.0,100,0.00,,,0.01,Weather View 32 v70,2013-01-13 18:38:00,
2013-01-13 13:43:00,42.0,42.0,29.75,SSW,202,6.0,10.0,100,0.00,,,0.01,Weather View 32 v70,2013-01-13 18:43:00,
2013-01-13 13:48:00,42.0,42.0,29.75,SSW,202,7.0,10.0,100,0.00,,,0.01,Weather View 32 v70,2013-01-13 18:48:00,
2013-01-13 13:53:00,42.0,42.0,29.74,SSW,202,9.0,10.0,100,0.00,,,0.01,Weather View 32 v70,2013-01-13 18:53:00,
2013-01-13 13:58:00,42.0,42.0,29.74,SSW,202,7.0,10.0,100,0.00,,,0.01,Weather View 32 v70,2013-01-13 18:58:00,
2013-01-13 14:03:00,42.0,42.0,29.74,SSW,202,6.0,10.0,100,0.00,,,0.01,Weather View 32 v70,2013-01-13 19:03:00,
2013-01-13 14:09:00,42.0,42.0,29.73,SSW,202,5.0,10.0,100,0.00,,,0.01,Weather View 32 v70,2013-01-13 19:09:00,
2013-01-13 14:14:00,42.0,42.0,29.73,SSW,202,5.0,10.0,100,0.00,,,0.01,Weather View 32 v70,2013-01-13 19:14:00,
2013-01-13 14:19:00,42.0,42.0,29.74,SW,225,7.0,10.0,100,0.00,,,0.01,Weather View 32 v70,2013-01-13 19:19:00,
2013-01-13 14:24:00,42.0,42.0,29.75,SSW,202,6.0,10.0,100,0.00,,,0.01,Weather View 32 v70,2013-01-13 19:24:00,
2013-01-13 14:29:00,42.0,42.0,29.75,SSW,202,6.0,10.0,100,0.00,,,0.01,Weather View 32 v70,2013-01-13 19:29:00,
2013-01-13 14:34:00,42.0,42.0,29.74,SSE,157,4.0,10.0,100,0.00,,,0.01,Weather View 32 v70,2013-01-13 19:34:00,
2013-01-13 14:39:00,42.0,42.0,29.74,SSE,157,5.0,10.0,100,0.00,,,0.01,Weather View 32 v70,2013-01-13 19:39:00,
2013-01-13 14:44:00,42.0,42.0,29.74,South,180,4.0,10.0,100,0.00,,,0.01,Weather View 32 v70,2013-01-13 19:44:00,
2013-01-13 14:49:00,42.0,42.0,29.74,SSW,202,5.0,10.0,100,0.00,,,0.01,Weather View 32 v70,2013-01-13 19:49:00,
2013-01-13 14:54:00,42.0,42.0,29.74,SSW,202,5.0,10.0,100,0.00,,,0.01,Weather View 32 v70,2013-01-13 19:54:00,
2013-01-13 14:59:00,42.0,42.0,29.74,South,180,6.0,10.0,100,0.00,,,0.01,Weather View 32 v70,2013-01-13 19:59:00,
2013-01-13 15:04:00,42.0,42.0,29.74,SSW,202,7.0,9.0,100,0.00,,,0.01,Weather View 32 v70,2013-01-13 20:04:00,
2013-01-13 15:09:00,42.0,42.0,29.74,SSE,157,1.0,9.0,100,0.00,,,0.01,Weather View 32 v70,2013-01-13 20:09:00,
2013-01-13 15:14:00,42.0,42.0,29.70,SSW,202,2.0,9.0,100,0.00,,,0.01,Weather View 32 v70,2013-01-13 20:14:00,
2013-01-13 15:19:00,42.0,42.0,29.73,SSW,202,3.0,9.0,100,0.00,,,0.01,Weather View 32 v70,2013-01-13 20:19:00,
2013-01-13 15:24:00,42.0,42.0,29.74,SSW,202,2.0,9.0,100,0.00,,,0.01,Weather View 32 v70,2013-01-13 20:24:00,
2013-01-13 15:29:00,42.0,42.0,29.74,South,180,6.0,9.0,100,0.00,,,0.01,Weather View 32 v70,2013-01-13 20:29:00,
2013-01-13 15:34:00,42.0,42.0,29.73,SE,135,5.0,9.0,100,0.00,,,0.01,Weather View 32 v70,2013-01-13 20:34:00,
2013-01-13 15:39:00,42.0,42.0,29.72,South,180,4.0,9.0,100,0.00,,,0.01,Weather View 32 v70,2013-01-13 20:39:00,
2013-01-13 15:44:00,42.0,42.0,29.72,SW,225,3.0,9.0,100,0.00,,,0.01,Weather View 32 v70,2013-01-13 20:44:00,
2013-01-13 15:49:00,42.0,42.0,29.72,SSW,202,2.0,9.0,100,0.00,,,0.01,Weather View 32 v70,2013-01-13 20:49:00,
2013-01-13 15:54:00,42.0,42.0,29.71,SSW,202,3.0,9.0,100,0.00,,,0.01,Weather View 32 v70,2013-01-13 20:54:00,
2013-01-13 15:59:00,42.0,42.0,29.71,SSW,202,3.0,9.0,100,0.00,,,0.01,Weather View 32 v70,2013-01-13 20:59:00,
2013-01-13 16:04:00,42.0,42.0,29.71,SE,135,5.0,9.0,100,0.00,,,0.01,Weather View 32 v70,2013-01-13 21:04:00,
2013-01-13 16:09:00,42.0,42.0,29.70,SSE,157,5.0,7.0,100,0.00,,,0.01,Weather View 32 v70,2013-01-13 21:09:00,
2013-01-13 16:14:00,42.0,42.0,29.70,SSW,202,2.0,7.0,100,0.00,,,0.01,Weather View 32 v70,2013-01-13 21:14:00,
2013-01-13 16:19:00,42.0,42.0,29.71,SSW,202,5.0,8.0,100,0.00,,,0.01,Weather View 32 v70,2013-01-13 21:19:00,
2013-01-13 16:24:00,42.0,42.0,29.71,South,180,2.0,9.0,100,0.00,,,0.01,Weather View 32 v70,2013-01-13 21:24:00,
2013-01-13 16:29:00,42.0,42.0,29.68,SSW,202,5.0,9.0,100,0.00,,,0.01,Weather View 32 v70,2013-01-13 21:29:00,
2013-01-13 16:34:00,42.0,42.0,29.70,SSW,202,3.0,9.0,100,0.00,,,0.01,Weather View 32 v70,2013-01-13 21:34:00,
2013-01-13 16:39:00,42.0,42.0,29.70,SSW,202,7.0,9.0,100,0.00,,,0.01,Weather View 32 v70,2013-01-13 21:39:00,
2013-01-13 16:44:00,43.0,43.0,29.71,SSE,157,7.0,9.0,100,0.00,,,0.01,Weather View 32 v70,2013-01-13 21:44:00,
2013-01-13 16:49:00,43.0,43.0,29.70,SSW,202,7.0,10.0,100,0.00,,,0.01,Weather View 32 v70,2013-01-13 21:49:00,
2013-01-13 16:54:00,43.0,43.0,29.70,SW,225,8.0,10.0,100,0.00,,,0.01,Weather View 32 v70,2013-01-13 21:54:00,
2013-01-13 16:59:00,43.0,43.0,29.71,SSW,202,7.0,10.0,100,0.00,,,0.01,Weather View 32 v70,2013-01-13 21:59:00,
2013-01-13 17:04:00,43.0,43.0,29.70,South,180,4.0,10.0,100,0.00,,,0.01,Weather View 32 v70,2013-01-13 22:04:00,
2013-01-13 17:09:00,43.0,43.0,29.69,SSW,202,7.0,10.0,100,0.00,,,0.01,Weather View 32 v70,2013-01-13 22:09:00,
2013-01-13 17:14:00,43.0,43.0,29.70,SSW,202,9.0,10.0,100,0.00,,,0.01,Weather View 32 v70,2013-01-13 22:14:00,
2013-01-13 17:19:00,43.0,43.0,29.69,SSW,202,7.0,12.0,100,0.00,,,0.01,Weather View 32 v70,2013-01-13 22:19:00,
2013-01-13 17:24:00,43.0,43.0,29.69,SSW,202,6.0,12.0,100,0.00,,,0.01,Weather View 32 v70,2013-01-13 22:24:00,
2013-01-13 17:29:00,43.0,43.0,29.68,SSW,202,7.0,12.0,100,0.00,,,0.01,Weather View 32 v70,2013-01-13 22:29:00,
2013-01-13 17:34:00,43.0,43.0,29.68,SSW,202,4.0,12.0,100,0.00,,,0.01,Weather View 32 v70,2013-01-13 22:34:00,
2013-01-13 17:39:00,43.0,43.0,29.68,SSW,202,5.0,12.0,100,0.00,,,0.01,Weather View 32 v70,2013-01-13 22:39:00,
2013-01-13 17:44:00,43.0,43.0,29.67,SSW,202,7.0,12.0,100,0.00,,,0.01,Weather View 32 v70,2013-01-13 22:44:00,
2013-01-13 17:49:00,43.0,43.0,29.67,SW,225,6.0,12.0,100,0.00,,,0.01,Weather View 32 v70,2013-01-13 22:49:00,
2013-01-13 17:54:00,43.0,43.0,29.68,WNW,292,0.0,12.0,100,0.00,,,0.01,Weather View 32 v70,2013-01-13 22:54:00,
2013-01-13 17:59:00,43.0,43.0,29.68,SSW,202,7.0,12.0,100,0.00,,,0.01,Weather View 32 v70,2013-01-13 22:59:00,
2013-01-13 18:04:00,43.0,43.0,29.68,SSW,202,6.0,12.0,100,0.00,,,0.01,Weather View 32 v70,2013-01-13 23:04:00,
2013-01-13 18:09:00,43.0,43.0,29.68,SSW,202,9.0,12.0,100,0.00,,,0.01,Weather View 32 v70,2013-01-13 23:09:00,
2013-01-13 18:14:00,43.0,43.0,29.69,SSW,202,6.0,12.0,100,0.00,,,0.01,Weather View 32 v70,2013-01-13 23:14:00,
2013-01-13 18:19:00,43.0,43.0,29.68,SW,225,9.0,12.0,100,0.00,,,0.01,Weather View 32 v70,2013-01-13 23:19:00,
2013-01-13 18:24:00,44.0,44.0,29.69,SSW,202,9.0,12.0,100,0.00,,,0.01,Weather View 32 v70,2013-01-13 23:24:00,
2013-01-13 18:29:00,44.0,44.0,29.70,SW,225,4.0,12.0,100,0.00,,,0.01,Weather View 32 v70,2013-01-13 23:29:00,
2013-01-13 18:34:00,44.0,44.0,29.69,SSW,202,8.0,12.0,100,0.00,,,0.01,Weather View 32 v70,2013-01-13 23:34:00,
2013-01-13 18:39:00,43.0,43.0,29.69,South,180,6.0,12.0,100,0.00,,,0.01,Weather View 32 v70,2013-01-13 23:39:00,
2013-01-13 18:44:00,43.0,43.0,29.69,South,180,4.0,12.0,100,0.00,,,0.01,Weather View 32 v70,2013-01-13 23:44:00,
2013-01-13 18:49:00,43.0,43.0,29.69,SSW,202,2.0,12.0,100,0.00,,,0.01,Weather View 32 v70,2013-01-13 23:49:00,
2013-01-13 18:54:00,43.0,43.0,29.69,SW,225,3.0,12.0,100,0.00,,,0.01,Weather View 32 v70,2013-01-13 23:54:00,
2013-01-13 18:59:00,43.0,43.0,29.69,SSW,202,7.0,12.0,100,0.00,,,0.01,Weather View 32 v70,2013-01-13 23:59:00,
2013-01-13 19:04:00,43.0,43.0,29.68,SW,225,6.0,12.0,100,0.00,,,0.01,Weather View 32 v70,2013-01-14 00:04:00,
2013-01-13 19:09:00,43.0,43.0,29.69,SSW,202,7.0,12.0,100,0.00,,,0.01,Weather View 32 v70,2013-01-14 00:09:00,
2013-01-13 19:14:00,43.0,43.0,29.68,SSW,202,6.0,10.0,100,0.00,,,0.01,Weather View 32 v70,2013-01-14 00:14:00,
2013-01-13 19:19:00,44.0,44.0,29.68,SE,135,3.0,10.0,100,0.00,,,0.01,Weather View 32 v70,2013-01-14 00:19:00,
2013-01-13 19:24:00,44.0,44.0,29.68,SSW,202,5.0,10.0,100,0.00,,,0.01,Weather View 32 v70,2013-01-14 00:24:00,
2013-01-13 19:29:00,44.0,44.0,29.68,SSW,202,4.0,10.0,100,0.00,,,0.01,Weather View 32 v70,2013-01-14 00:29:00,
2013-01-13 19:34:00,44.0,44.0,29.68,SW,225,6.0,10.0,100,0.00,,,0.01,Weather View 32 v70,2013-01-14 00:34:00,
2013-01-13 19:39:00,44.0,44.0,29.68,SSW,202,6.0,10.0,100,0.00,,,0.01,Weather View 32 v70,2013-01-14 00:39:00,
2013-01-13 19:44:00,43.0,43.0,29.67,SSW,202,4.0,10.0,100,0.00,,,0.01,Weather View 32 v70,2013-01-14 00:44:00,
2013-01-13 19:49:00,43.0,43.0,29.67,SSW,202,6.0,10.0,100,0.00,,,0.01,Weather View 32 v70,2013-01-14 00:49:00,
2013-01-13 19:54:00,43.0,43.0,29.66,South,180,6.0,10.0,100,0.00,,,0.01,Weather View 32 v70,2013-01-14 00:54:00,
2013-01-13 19:59:00,43.0,43.0,29.67,South,180,4.0,10.0,100,0.00,,,0.01,Weather View 32 v70,2013-01-14 00:59:00,
2013-01-13 20:04:00,43.0,43.0,29.67,South,180,6.0,10.0,100,0.00,,,0.01,Weather View 32 v70,2013-01-14 01:04:00,
2013-01-13 20:09:00,43.0,43.0,29.66,NW,315,0.0,10.0,100,0.00,,,0.01,Weather View 32 v70,2013-01-14 01:09:00,
2013-01-13 20:14:00,43.0,43.0,29.66,SW,225,1.0,10.0,100,0.00,,,0.01,Weather View 32 v70,2013-01-14 01:14:00,
2013-01-13 20:19:00,43.0,43.0,29.67,SW,225,6.0,10.0,100,0.00,,,0.01,Weather View 32 v70,2013-01-14 01:19:00,
2013-01-13 20:24:00,43.0,43.0,29.68,SSW,202,6.0,10.0,100,0.00,,,0.01,Weather View 32 v70,2013-01-14 01:24:00,
2013-01-13 20:29:00,43.0,43.0,29.68,SSW,202,7.0,10.0,100,0.00,,,0.01,Weather View 32 v70,2013-01-14 01:29:00,
2013-01-13 20:34:00,43.0,43.0,29.67,SSW,202,9.0,10.0,100,0.00,,,0.01,Weather View 32 v70,2013-01-14 01:34:00,
2013-01-13 20:39:00,43.0,43.0,29.66,South,180,6.0,10.0,100,0.00,,,0.01,Weather View 32 v70,2013-01-14 01:39:00,
2013-01-13 20:44:00,43.0,43.0,29.66,SSW,202,7.0,10.0,100,0.00,,,0.01,Weather View 32 v70,2013-01-14 01:44:00,
2013-01-13 20:49:00,43.0,43.0,29.66,SSW,202,6.0,10.0,100,0.00,,,0.01,Weather View 32 v70,2013-01-14 01:49:00,
2013-01-13 20:54:00,43.0,43.0,29.66,SSW,202,6.0,10.0,100,0.00,,,0.01,Weather View 32 v70,2013-01-14 01:54:00,
2013-01-13 20:59:00,43.0,43.0,29.66,SSW,202,5.0,12.0,100,0.00,,,0.01,Weather View 32 v70,2013-01-14 01:59:00,
2013-01-13 21:04:00,43.0,43.0,29.65,SW,225,6.0,12.0,100,0.00,,,0.01,Weather View 32 v70,2013-01-14 02:04:00,
2013-01-13 21:09:00,43.0,43.0,29.66,SSW,202,5.0,12.0,100,0.00,,,0.01,Weather View 32 v70,2013-01-14 02:09:00,
2013-01-13 21:14:00,43.0,43.0,29.66,SSW,202,6.0,12.0,100,0.00,,,0.01,Weather View 32 v70,2013-01-14 02:14:00,
2013-01-13 21:19:00,43.0,43.0,29.65,SSW,202,9.0,12.0,100,0.00,,,0.01,Weather View 32 v70,2013-01-14 02:19:00,
2013-01-13 21:24:00,43.0,43.0,29.65,SSW,202,9.0,12.0,100,0.00,,,0.01,Weather View 32 v70,2013-01-14 02:24:00,
2013-01-13 21:29:00,43.0,43.0,29.65,SSW,202,6.0,12.0,100,0.00,,,0.01,Weather View 32 v70,2013-01-14 02:29:00,
2013-01-13 21:34:00,43.0,43.0,29.64,South,180,12.0,15.0,100,0.00,,,0.01,Weather View 32 v70,2013-01-14 02:34:00,
2013-01-13 21:39:00,43.0,43.0,29.64,SW,225,6.0,15.0,100,0.00,,,0.01,Weather View 32 v70,2013-01-14 02:39:00,
2013-01-13 21:44:00,43.0,43.0,29.65,SSW,202,6.0,15.0,100,0.00,,,0.01,Weather View 32 v70,2013-01-14 02:44:00,
2013-01-13 21:49:00,43.0,43.0,29.66,SSW,202,9.0,15.0,100,0.00,,,0.01,Weather View 32 v70,2013-01-14 02:49:00,
2013-01-13 21:54:00,43.0,43.0,29.65,SSW,202,6.0,15.0,100,0.00,,,0.01,Weather View 32 v70,2013-01-14 02:54:00,
2013-01-13 21:59:00,43.0,43.0,29.65,WSW,247,4.0,15.0,100,0.00,,,0.01,Weather View 32 v70,2013-01-14 02:59:00,
2013-01-13 22:04:00,43.0,43.0,29.64,SSW,202,7.0,15.0,100,0.00,,,0.01,Weather View 32 v70,2013-01-14 03:04:00,
2013-01-13 22:09:00,43.0,43.0,29.64,SW,225,7.0,15.0,100,0.00,,,0.01,Weather View 32 v70,2013-01-14 03:09:00,
2013-01-13 22:14:00,43.0,43.0,29.64,SSW,202,5.0,15.0,100,0.01,,,0.02,Weather View 32 v70,2013-01-14 03:14:00,
2013-01-13 22:19:00,43.0,43.0,29.64,SSW,202,4.0,15.0,100,0.01,,,0.02,Weather View 32 v70,2013-01-14 03:19:00,
2013-01-13 22:24:00,43.0,43.0,29.65,SSE,157,3.0,15.0,100,0.01,,,0.02,Weather View 32 v70,2013-01-14 03:24:00,
2013-01-13 22:29:00,43.0,43.0,29.65,SW,225,0.0,15.0,100,0.01,,,0.02,Weather View 32 v70,2013-01-14 03:29:00,
2013-01-13 22:34:00,43.0,43.0,29.65,SSW,202,3.0,14.0,100,0.01,,,0.02,Weather View 32 v70,2013-01-14 03:34:00,
2013-01-13 22:39:00,44.0,44.0,29.66,SSW,202,4.0,14.0,100,0.01,,,0.02,Weather View 32 v70,2013-01-14 03:39:00,
2013-01-13 22:44:00,44.0,44.0,29.66,SSW,202,3.0,14.0,100,0.01,,,0.02,Weather View 32 v70,2013-01-14 03:44:00,
2013-01-13 22:49:00,44.0,44.0,29.66,South,180,2.0,14.0,100,0.01,,,0.02,Weather View 32 v70,2013-01-14 03:49:00,
2013-01-13 22:54:00,44.0,44.0,29.64,SSW,202,6.0,14.0,100,0.01,,,0.02,Weather View 32 v70,2013-01-14 03:54:00,
2013-01-13 22:59:00,44.0,44.0,29.65,SSW,202,6.0,10.0,100,0.01,,,0.02,Weather View 32 v70,2013-01-14 03:59:00,
2013-01-13 23:04:00,44.0,44.0,29.64,SSW,202,6.0,10.0,100,0.01,,,0.02,Weather View 32 v70,2013-01-14 04:04:00,
2013-01-13 23:09:00,44.0,44.0,29.64,SSW,202,6.0,10.0,100,0.01,,,0.02,Weather View 32 v70,2013-01-14 04:09:00,
2013-01-13 23:14:00,44.0,44.0,29.60,South,180,7.0,10.0,100,0.00,,,0.02,Weather View 32 v70,2013-01-14 04:14:00,
2013-01-13 23:19:00,44.0,44.0,29.62,South,180,10.0,10.0,100,0.00,,,0.02,Weather View 32 v70,2013-01-14 04:19:00,
2013-01-13 23:24:00,44.0,44.0,29.62,South,180,9.0,13.0,100,0.00,,,0.02,Weather View 32 v70,2013-01-14 04:24:00,
2013-01-13 23:29:00,44.0,44.0,29.62,SSW,202,5.0,13.0,100,0.00,,,0.02,Weather View 32 v70,2013-01-14 04:29:00,
2013-01-13 23:34:00,44.0,44.0,29.62,SW,225,9.0,13.0,100,0.00,,,0.02,Weather View 32 v70,2013-01-14 04:34:00,
2013-01-13 23:39:00,44.0,44.0,29.62,SSW,202,9.0,13.0,100,0.00,,,0.02,Weather View 32 v70,2013-01-14 04:39:00,
2013-01-13 23:44:00,44.0,44.0,29.62,SSW,202,6.0,13.0,100,0.00,,,0.02,Weather View 32 v70,2013-01-14 04:44:00,
2013-01-13 23:49:00,44.0,44.0,29.62,SSW,202,5.0,13.0,100,0.00,,,0.02,Weather View 32 v70,2013-01-14 04:49:00,
2013-01-13 23:54:00,44.0,44.0,29.61,WSW,247,2.0,13.0,100,0.00,,,0.02,Weather View 32 v70,2013-01-14 04:54:00,
2013-01-13 23:59:00,45.0,45.0,29.62,SSW,202,7.0,13.0,100,0.00,,,0.02,Weather View 32 v70,2013-01-14 04:59:00,